Location: G�ndlingen
(48.0142°N, 7.6396°E)
Time: 02:15:58
(UTC+00:00)

CZ-4C R/B - Pass Details

Date: 05 July 2020
Orbit: 632 x 1369 km, 63.4° (Epoch: 04 August)

Event Time Altitude Azimuth Distance (km) Brightness Sun altitude
Rises 23:24:34 0° 318° (NW) 3,720 6.4 -19.3°
Reaches altitude 10° 23:27:03 10° 323° (NW) 2,871 5.7 -19.3°
Maximum altitude 23:33:55 58° 42° (NE) 1,373 3.5 -19.3°
Drops below altitude 10° 23:41:54 10° 120° (ESE) 3,327 5.0 -19.3°
Sets 23:44:59 0° 125° (SE) 4,349 5.6 -19.3°
